| time (UTC) | temp C | wind direction | speed KPH | gust KPH | rain 1hr cm | rain 24hr cm | rain mn cm | humidity % | barometer mb |
| 20260505130210 | 5 | 17 | 0.0 | 0.0 | 0.00 | 0.03 | 0.03 | 85 | 1015.9 |
| 20260505124700 | 5 | 17 | 0.0 | 0.0 | 0.00 | 0.03 | 0.03 | 84 | 1015.6 |
| 20260505124156 | 5 | 17 | 0.0 | 0.0 | 0.00 | 0.03 | 0.03 | 84 | 1015.3 |
| 20260505123653 | 5 | 17 | 0.0 | 0.0 | 0.00 | 0.03 | 0.03 | 84 | 1015.3 |
| 20260505123150 | 5 | 17 | 0.0 | 0.0 | 0.00 | 0.03 | 0.03 | 83 | 1015.6 |
| 20260505122646 | 5 | 17 | 0.0 | 0.0 | 0.00 | 0.03 | 0.03 | 82 | 1015.4 |
| 20260505122143 | 5 | 17 | 0.0 | 0.0 | 0.00 | 0.03 | 0.03 | 82 | 1015.3 |
| 20260505121640 | 5 | 17 | 0.0 | 0.0 | 0.00 | 0.03 | 0.03 | 82 | 1015.2 |
| 20260505121137 | 5 | 17 | 0.0 | 0.0 | 0.00 | 0.03 | 0.03 | 82 | 1014.8 |
| 20260505120633 | 6 | 17 | 0.0 | 0.0 | 0.00 | 0.03 | 0.03 | 80 | 1014.8 |
| 20260505120129 | 6 | 17 | 0.0 | 0.0 | 0.00 | 0.03 | 0.03 | 80 | 1014.7 |
| 20260505115623 | 6 | 17 | 0.0 | 0.0 | 0.00 | 0.03 | 0.03 | 79 | 1014.4 |
| 20260505115121 | 6 | 17 | 0.0 | 0.0 | 0.00 | 0.03 | 0.03 | 81 | 1014.6 |
| 20260505114618 | 6 | 17 | 0.0 | 0.0 | 0.00 | 0.03 | 0.03 | 79 | 1014.5 |
| 20260505114114 | 6 | 17 | 0.0 | 0.0 | 0.00 | 0.03 | 0.03 | 79 | 1014.2 |
| 20260505113611 | 6 | 17 | 0.0 | 0.0 | 0.00 | 0.03 | 0.03 | 78 | 1014.5 |
| 20260505113108 | 6 | 17 | 0.0 | 0.0 | 0.00 | 0.03 | 0.03 | 78 | 1014.5 |
| 20260505112604 | 6 | 17 | 0.0 | 0.0 | 0.00 | 0.03 | 0.03 | 77 | 1014.2 |
| 20260505112103 | 6 | 17 | 0.0 | 0.0 | 0.00 | 0.03 | 0.03 | 77 | 1014.0 |
| 20260505111601 | 6 | 17 | 0.0 | 0.0 | 0.00 | 0.03 | 0.03 | 79 | 1014.0 |
| 20260505111057 | 7 | 17 | 0.0 | 0.0 | 0.00 | 0.03 | 0.03 | 79 | 1014.1 |
| 20260505110554 | 7 | 17 | 0.0 | 0.0 | 0.00 | 0.03 | 0.03 | 81 | 1014.2 |
| 20260505102027 | 6 | 17 | 0.0 | 0.0 | 0.00 | 0.03 | 0.03 | 84 | 1014.4 |
| 20260505101525 | 6 | 17 | 0.0 | 0.0 | 0.00 | 0.03 | 0.03 | 85 | 1014.2 |
| 20260505101021 | 6 | 17 | 0.0 | 0.0 | 0.00 | 0.03 | 0.03 | 87 | 1014.5 |
| 20260505100518 | 6 | 17 | 0.0 | 0.0 | 0.00 | 0.03 | 0.03 | 87 | 1014.2 |
| 20260505100015 | 6 | 17 | 0.0 | 0.0 | 0.00 | 0.03 | 0.03 | 89 | 1014.4 |
| 20260505095511 | 6 | 17 | 0.0 | 0.0 | 0.00 | 0.03 | 0.03 | 90 | 1014.5 |
| 20260505095008 | 6 | 17 | 0.0 | 0.0 | 0.00 | 0.03 | 0.03 | 89 | 1014.1 |
| 20260505094504 | 6 | 17 | 0.0 | 0.0 | 0.00 | 0.03 | 0.03 | 89 | 1014.5 |
| 20260505094000 | 6 | 17 | 0.0 | 0.0 | 0.00 | 0.03 | 0.03 | 89 | 1014.6 |
| 20260505093457 | 6 | 17 | 0.0 | 0.0 | 0.00 | 0.03 | 0.03 | 88 | 1014.2 |
| 20260505092954 | 6 | 17 | 0.0 | 0.0 | 0.00 | 0.03 | 0.03 | 88 | 1014.1 |
| 20260505092452 | 7 | 17 | 0.0 | 0.0 | 0.00 | 0.03 | 0.03 | 88 | 1014.5 |
| 20260505091949 | 7 | 17 | 0.0 | 0.0 | 0.00 | 0.03 | 0.03 | 88 | 1014.1 |
| 20260505091447 | 7 | 17 | 0.0 | 0.0 | 0.00 | 0.03 | 0.03 | 87 | 1014.6 |
| 20260505090945 | 7 | 17 | 0.0 | 0.0 | 0.00 | 0.03 | 0.03 | 86 | 1014.5 |
| 20260505090443 | 7 | 17 | 0.0 | 0.0 | 0.00 | 0.03 | 0.03 | 86 | 1014.5 |
| 20260505085940 | 7 | 17 | 0.0 | 0.0 | 0.00 | 0.03 | 0.03 | 87 | 1014.5 |
| 20260505085438 | 7 | 17 | 0.0 | 0.0 | 0.00 | 0.03 | 0.03 | 87 | 1014.5 |
| 20260505084936 | 7 | 17 | 0.0 | 0.0 | 0.00 | 0.03 | 0.03 | 88 | 1014.6 |
| 20260505084434 | 7 | 17 | 0.0 | 0.0 | 0.00 | 0.03 | 0.03 | 86 | 1014.6 |
| 20260505083931 | 7 | 17 | 0.0 | 0.0 | 0.00 | 0.03 | 0.03 | 85 | 1014.8 |
| 20260505083428 | 7 | 17 | 0.0 | 0.0 | 0.00 | 0.03 | 0.03 | 85 | 1015.0 |
| 20260505082924 | 7 | 17 | 0.0 | 0.0 | 0.00 | 0.03 | 0.03 | 85 | 1015.0 |
| 20260505082420 | 7 | 17 | 0.0 | 0.0 | 0.00 | 0.03 | 0.03 | 86 | 1015.2 |
| 20260505081918 | 7 | 17 | 0.0 | 0.0 | 0.00 | 0.03 | 0.03 | 86 | 1014.8 |
| 20260505081415 | 7 | 17 | 0.0 | 0.0 | 0.00 | 0.03 | 0.03 | 86 | 1015.1 |
| 20260505080911 | 7 | 17 | 0.0 | 0.0 | 0.00 | 0.03 | 0.03 | 86 | 1015.0 |
| 20260505080407 | 7 | 17 | 0.0 | 0.0 | 0.00 | 0.03 | 0.03 | 86 | 1015.0 |
| 20260505075902 | 7 | 17 | 0.0 | 0.0 | 0.00 | 0.03 | 0.03 | 86 | 1015.1 |
| 20260505075359 | 7 | 17 | 0.0 | 0.0 | 0.00 | 0.03 | 0.03 | 86 | 1015.1 |
| 20260505074857 | 7 | 17 | 0.0 | 0.0 | 0.00 | 0.03 | 0.03 | 89 | 1015.0 |
| 20260505074354 | 7 | 17 | 0.0 | 0.0 | 0.00 | 0.03 | 0.03 | 92 | 1015.2 |
| 20260505073851 | 7 | 17 | 0.0 | 0.0 | 0.00 | 0.03 | 0.03 | 93 | 1015.3 |
| 20260505073349 | 7 | 17 | 0.0 | 0.0 | 0.00 | 0.03 | 0.03 | 92 | 1015.1 |
| 20260505072846 | 7 | 17 | 0.0 | 0.0 | 0.00 | 0.03 | 0.03 | 91 | 1015.2 |
| 20260505072342 | 7 | 17 | 0.0 | 0.0 | 0.00 | 0.03 | 0.03 | 91 | 1015.6 |
| 20260505071838 | 6 | 17 | 0.0 | 0.0 | 0.00 | 0.03 | 0.03 | 93 | 1015.2 |
| 20260505071334 | 7 | 17 | 0.0 | 0.0 | 0.00 | 0.03 | 0.03 | 93 | 1015.3 |
| 20260505070833 | 6 | 17 | 0.0 | 0.0 | 0.00 | 0.03 | 0.03 | 93 | 1015.2 |
| 20260505070329 | 7 | 17 | 0.0 | 0.0 | 0.00 | 0.03 | 0.03 | 93 | 1015.2 |
| 20260505065824 | 7 | 17 | 0.0 | 0.0 | 0.00 | 0.03 | 0.03 | 94 | 1015.2 |
| 20260505065321 | 7 | 17 | 0.0 | 0.0 | 0.00 | 0.03 | 0.03 | 95 | 1015.2 |
| 20260505064818 | 7 | 17 | 0.0 | 0.0 | 0.00 | 0.03 | 0.03 | 95 | 1015.0 |
| 20260505064315 | 7 | 17 | 0.0 | 0.0 | 0.00 | 0.03 | 0.03 | 95 | 1015.0 |
| 20260505063814 | 7 | 17 | 0.0 | 0.0 | 0.00 | 0.03 | 0.03 | 94 | 1015.1 |
| 20260505063309 | 7 | 17 | 0.0 | 0.0 | 0.00 | 0.03 | 0.03 | 94 | 1015.1 |
| 20260505062806 | 7 | 17 | 0.0 | 0.0 | 0.00 | 0.03 | 0.03 | 93 | 1015.6 |
| 20260505062304 | 7 | 17 | 0.0 | 0.0 | 0.00 | 0.03 | 0.03 | 93 | 1015.3 |
| 20260505061800 | 7 | 17 | 0.0 | 0.0 | 0.00 | 0.03 | 0.03 | 93 | 1015.1 |
| 20260505061258 | 7 | 17 | 0.0 | 0.0 | 0.13 | 0.03 | 0.03 | 93 | 1015.3 |
| 20260505060755 | 7 | 17 | 0.0 | 0.0 | 0.13 | 0.03 | 0.03 | 90 | 1015.6 |
| 20260505060252 | 7 | 17 | 0.0 | 0.0 | 0.00 | 0.00 | 0.00 | 89 | 1015.6 |
| 20260505055747 | 8 | 17 | 0.0 | 0.0 | 0.18 | 0.08 | 0.08 | 84 | 1015.3 |
| 20260505055244 | 8 | 17 | 0.0 | 0.0 | 0.18 | 0.08 | 0.08 | 81 | 1015.7 |
| 20260505054741 | 8 | 17 | 0.0 | 0.0 | 0.00 | 0.05 | 0.05 | 77 | 1015.7 |
| 20260505054239 | 8 | 17 | 0.0 | 0.0 | 0.00 | 0.05 | 0.05 | 75 | 1015.8 |
| 20260505053737 | 8 | 17 | 0.0 | 0.0 | 0.00 | 0.05 | 0.05 | 74 | 1015.6 |
| 20260505053233 | 8 | 17 | 0.0 | 0.0 | 0.00 | 0.05 | 0.05 | 73 | 1015.6 |
| 20260505052731 | 8 | 17 | 0.0 | 0.0 | 0.00 | 0.05 | 0.05 | 73 | 1015.6 |
| 20260505052227 | 8 | 17 | 0.0 | 0.0 | 0.00 | 0.05 | 0.05 | 73 | 1015.2 |
| 20260505051725 | 8 | 17 | 0.0 | 0.0 | 0.00 | 0.05 | 0.05 | 74 | 1015.7 |
| 20260505051223 | 8 | 17 | 0.0 | 0.0 | 0.00 | 0.05 | 0.05 | 75 | 1015.2 |
| 20260505050720 | 8 | 17 | 0.0 | 0.0 | 0.00 | 0.05 | 0.05 | 76 | 1015.3 |
| 20260505050218 | 8 | 17 | 0.0 | 0.0 | 0.00 | 0.05 | 0.05 | 76 | 1015.2 |
| 20260505041648 | 8 | 17 | 0.0 | 0.0 | 0.00 | 0.05 | 0.05 | 76 | 1015.0 |
| 20260505041146 | 8 | 17 | 0.0 | 0.0 | 0.00 | 0.05 | 0.05 | 76 | 1014.6 |
| 20260505040643 | 8 | 17 | 0.0 | 0.0 | 0.00 | 0.05 | 0.05 | 76 | 1014.6 |
| 20260505040140 | 8 | 17 | 0.0 | 0.0 | 0.00 | 0.05 | 0.05 | 75 | 1014.8 |
| 20260505035636 | 8 | 17 | 0.0 | 0.0 | 0.00 | 0.05 | 0.05 | 75 | 1014.7 |
| 20260505035132 | 8 | 17 | 0.0 | 0.0 | 0.00 | 0.05 | 0.05 | 75 | 1014.7 |
| 20260505034629 | 8 | 17 | 0.0 | 0.0 | 0.00 | 0.05 | 0.05 | 75 | 1015.0 |
| 20260505034126 | 8 | 17 | 0.0 | 0.0 | 0.00 | 0.05 | 0.05 | 74 | 1014.8 |
| 20260505033622 | 8 | 17 | 0.0 | 0.0 | 0.00 | 0.05 | 0.05 | 73 | 1014.6 |
| 20260505033121 | 8 | 17 | 0.0 | 0.0 | 0.00 | 0.05 | 0.05 | 73 | 1014.7 |
| 20260505032619 | 9 | 17 | 0.0 | 0.0 | 0.00 | 0.05 | 0.05 | 73 | 1014.4 |
| 20260505032114 | 9 | 17 | 0.0 | 0.0 | 0.00 | 0.05 | 0.05 | 68 | 1014.2 |
| 20260505031612 | 9 | 17 | 0.0 | 0.0 | 0.00 | 0.05 | 0.05 | 71 | 1014.2 |
| 20260505031108 | 9 | 17 | 0.0 | 0.0 | 0.00 | 0.05 | 0.05 | 69 | 1014.1 |
| 20260505030605 | 8 | 17 | 0.0 | 0.0 | 0.00 | 0.05 | 0.05 | 71 | 1014.1 |
| 20260505030101 | 8 | 17 | 0.0 | 0.0 | 0.00 | 0.05 | 0.05 | 76 | 1014.0 |
| 20260505025557 | 9 | 17 | 0.0 | 0.0 | 0.00 | 0.05 | 0.05 | 73 | 1014.0 |
| 20260505025056 | 8 | 17 | 0.0 | 0.0 | 0.00 | 0.05 | 0.05 | 72 | 1013.9 |
| 20260505024553 | 9 | 17 | 0.0 | 0.0 | 0.00 | 0.05 | 0.05 | 74 | 1013.9 |
| 20260505024050 | 9 | 17 | 0.0 | 0.0 | 0.00 | 0.05 | 0.05 | 72 | 1014.1 |
| 20260505023547 | 9 | 17 | 0.0 | 0.0 | 0.00 | 0.05 | 0.05 | 72 | 1014.2 |
| 20260505023045 | 10 | 17 | 0.0 | 0.0 | 0.00 | 0.05 | 0.05 | 70 | 1014.5 |
| 20260505022542 | 10 | 17 | 0.0 | 0.0 | 0.00 | 0.05 | 0.05 | 67 | 1014.4 |
| 20260505022039 | 10 | 17 | 0.0 | 0.0 | 0.00 | 0.05 | 0.05 | 69 | 1014.2 |
| 20260505021536 | 10 | 17 | 0.0 | 0.0 | 0.00 | 0.05 | 0.05 | 67 | 1014.2 |
| 20260505021032 | 10 | 17 | 0.0 | 1.6 | 0.00 | 0.05 | 0.05 | 67 | 1014.0 |
| 20260505020532 | 10 | 17 | 0.0 | 0.0 | 0.00 | 0.05 | 0.05 | 69 | 1014.4 |
| 20260505020030 | 10 | 17 | 0.0 | 0.0 | 0.00 | 0.05 | 0.05 | 68 | 1014.1 |
| 20260505015527 | 10 | 17 | 0.0 | 0.0 | 0.00 | 0.05 | 0.05 | 68 | 1014.2 |
| 20260505015023 | 10 | 17 | 0.0 | 0.0 | 0.00 | 0.05 | 0.05 | 70 | 1014.2 |
| 20260505014520 | 10 | 17 | 0.0 | 0.0 | 0.00 | 0.05 | 0.05 | 71 | 1013.8 |
| 20260505014017 | 10 | 17 | 0.0 | 0.0 | 0.00 | 0.05 | 0.05 | 72 | 1013.6 |
| 20260505013515 | 8 | 17 | 0.0 | 1.6 | 0.00 | 0.05 | 0.05 | 74 | 1013.6 |
| 20260505013012 | 8 | 17 | 0.0 | 1.6 | 0.00 | 0.05 | 0.05 | 80 | 1013.5 |
| 20260505012510 | 8 | 17 | 0.0 | 0.0 | 0.00 | 0.05 | 0.05 | 79 | 1013.6 |
| 20260505012006 | 8 | 17 | 0.0 | 0.0 | 0.13 | 0.05 | 0.05 | 81 | 1013.8 |
| 20260505011502 | 8 | 17 | 0.0 | 1.6 | 0.18 | 0.03 | 0.03 | 79 | 1014.0 |
| 20260505010959 | 9 | 17 | 0.0 | 1.6 | 0.18 | 0.03 | 0.03 | 75 | 1013.8 |
| 20260505010455 | 10 | 17 | 0.0 | 1.6 | 0.00 | 0.00 | 0.00 | 70 | 1013.6 |
| 20260505005951 | 12 | 17 | 1.6 | 4.8 | 0.00 | 0.00 | 0.00 | 61 | 1013.1 |
| 20260505005448 | 12 | 17 | 0.0 | 0.0 | 0.00 | 0.00 | 0.00 | 53 | 1012.9 |
| 20260505004946 | 13 | 17 | 0.0 | 0.0 | 0.00 | 0.00 | 0.00 | 55 | 1012.9 |
| 20260505004442 | 13 | 17 | 0.0 | 1.6 | 0.00 | 0.00 | 0.00 | 50 | 1012.8 |
| 20260505003939 | 14 | 17 | 1.6 | 4.8 | 0.00 | 0.00 | 0.00 | 47 | 1012.1 |
| 20260505003436 | 15 | 17 | 0.0 | 0.0 | 0.00 | 0.00 | 0.00 | 45 | 1011.9 |
| 20260505002932 | 16 | 17 | 0.0 | 0.0 | 0.00 | 0.00 | 0.00 | 40 | 1012.1 |
| 20260505002429 | 16 | 17 | 0.0 | 0.0 | 0.00 | 0.00 | 0.00 | 36 | 1011.7 |
| 20260505001927 | 16 | 17 | 0.0 | 0.0 | 0.00 | 0.00 | 0.00 | 37 | 1011.7 |
| 20260505001425 | 16 | 17 | 0.0 | 0.0 | 0.00 | 0.00 | 0.00 | 36 | 1011.9 |
| 20260505000922 | 16 | 17 | 0.0 | 0.0 | 0.00 | 0.00 | 0.00 | 36 | 1011.6 |
| 20260505000420 | 16 | 17 | 1.6 | 4.8 | 0.00 | 0.00 | 0.00 | 35 | 1011.8 |
| 20260504235916 | 16 | 17 | 0.0 | 0.0 | 0.00 | 0.00 | 0.00 | 35 | 1011.6 |
| 20260504235413 | 17 | 17 | 0.0 | 0.0 | 0.00 | 0.00 | 0.00 | 35 | 1011.7 |
| 20260504234909 | 17 | 17 | 0.0 | 0.0 | 0.00 | 0.00 | 0.00 | 35 | 1011.3 |
| 20260504234407 | 17 | 17 | 1.6 | 3.2 | 0.00 | 0.00 | 0.00 | 34 | 1011.1 |
| 20260504233903 | 17 | 17 | 0.0 | 0.0 | 0.00 | 0.00 | 0.00 | 34 | 1011.2 |
| 20260504233359 | 17 | 17 | 0.0 | 0.0 | 0.00 | 0.00 | 0.00 | 34 | 1011.0 |
| 20260504232856 | 17 | 17 | 1.6 | 3.2 | 0.00 | 0.00 | 0.00 | 38 | 1011.1 |
| 20260504232353 | 17 | 18 | 0.0 | 0.0 | 0.00 | 0.00 | 0.00 | 37 | 1011.1 |
| 20260504231850 | 17 | 18 | 0.0 | 0.0 | 0.00 | 0.00 | 0.00 | 38 | 1011.1 |
| 20260504231346 | 17 | 18 | 0.0 | 0.0 | 0.00 | 0.00 | 0.00 | 33 | 1010.7 |
| 20260504230842 | 17 | 18 | 0.0 | 1.6 | 0.00 | 0.00 | 0.00 | 38 | 1010.8 |
| 20260504230340 | 17 | 18 | 0.0 | 0.0 | 0.00 | 0.00 | 0.00 | 37 | 1010.6 |
| 20260504225839 | 16 | 18 | 0.0 | 0.0 | 0.00 | 0.00 | 0.00 | 37 | 1011.0 |
| 20260504225335 | 16 | 17 | 0.0 | 0.0 | 0.00 | 0.00 | 0.00 | 37 | 1011.0 |
| 20260504224833 | 16 | 17 | 0.0 | 0.0 | 0.00 | 0.00 | 0.00 | 38 | 1011.0 |
| 20260504224329 | 16 | 17 | 0.0 | 0.0 | 0.00 | 0.00 | 0.00 | 38 | 1010.8 |
| 20260504223826 | 16 | 17 | 0.0 | 0.0 | 0.00 | 0.00 | 0.00 | 37 | 1011.1 |
| 20260504223321 | 16 | 17 | 0.0 | 0.0 | 0.00 | 0.00 | 0.00 | 39 | 1011.2 |
| 20260504222818 | 16 | 17 | 0.0 | 0.0 | 0.00 | 0.00 | 0.00 | 40 | 1011.8 |
| 20260504222315 | 15 | 17 | 0.0 | 0.0 | 0.00 | 0.00 | 0.00 | 45 | 1011.4 |
| 20260504221814 | 15 | 17 | 0.0 | 0.0 | 0.00 | 0.00 | 0.00 | 45 | 1011.4 |
| 20260504221310 | 15 | 17 | 0.0 | 0.0 | 0.00 | 0.00 | 0.00 | 45 | 1011.3 |
| 20260504220807 | 16 | 17 | 0.0 | 3.2 | 0.00 | 0.00 | 0.00 | 48 | 1011.7 |
| 20260504220303 | 16 | 17 | 0.0 | 0.0 | 0.00 | 0.00 | 0.00 | 40 | 1011.6 |
| 20260504215801 | 16 | 17 | 0.0 | 0.0 | 0.00 | 0.00 | 0.00 | 38 | 1011.8 |
| 20260504215257 | 16 | 17 | 0.0 | 1.6 | 0.00 | 0.00 | 0.00 | 37 | 1011.3 |
| 20260504214753 | 16 | 17 | 0.0 | 1.6 | 0.00 | 0.00 | 0.00 | 37 | 1011.4 |
| 20260504214250 | 16 | 17 | 4.8 | 16.1 | 0.00 | 0.00 | 0.00 | 38 | 1011.7 |
| 20260504213747 | 17 | 17 | 0.0 | 1.6 | 0.00 | 0.00 | 0.00 | 37 | 1011.4 |
| 20260504213243 | 18 | 17 | 0.0 | 1.6 | 0.00 | 0.00 | 0.00 | 31 | 1011.1 |
| 20260504212740 | 18 | 17 | 1.6 | 4.8 | 0.00 | 0.00 | 0.00 | 27 | 1011.0 |
| 20260504212236 | 19 | 18 | 1.6 | 4.8 | 0.00 | 0.00 | 0.00 | 27 | 1010.7 |
| 20260504211734 | 20 | 18 | 0.0 | 0.0 | 0.00 | 0.00 | 0.00 | 25 | 1010.6 |
| 20260504211230 | 21 | 18 | 0.0 | 0.0 | 0.00 | 0.00 | 0.00 | 24 | 1010.5 |
| 20260504210728 | 20 | 18 | 0.0 | 0.0 | 0.00 | 0.00 | 0.00 | 24 | 1010.6 |
| 20260504210225 | 21 | 18 | 0.0 | 0.0 | 0.00 | 0.00 | 0.00 | 23 | 1010.4 |
| 20260504205722 | 21 | 18 | 0.0 | 0.0 | 0.00 | 0.00 | 0.00 | 23 | 1010.5 |
| 20260504205220 | 21 | 18 | 0.0 | 0.0 | 0.00 | 0.00 | 0.00 | 24 | 1010.4 |
| 20260504204717 | 21 | 18 | 0.0 | 0.0 | 0.00 | 0.00 | 0.00 | 22 | 1010.6 |
| 20260504204216 | 21 | 19 | 0.0 | 0.0 | 0.00 | 0.00 | 0.00 | 23 | 1010.6 |
| 20260504203715 | 21 | 19 | 0.0 | 0.0 | 0.00 | 0.00 | 0.00 | 23 | 1010.8 |
| 20260504203212 | 21 | 19 | 0.0 | 0.0 | 0.00 | 0.00 | 0.00 | 23 | 1010.7 |
| 20260504202711 | 21 | 18 | 0.0 | 0.0 | 0.00 | 0.00 | 0.00 | 23 | 1011.3 |
| 20260504202209 | 21 | 18 | 0.0 | 0.0 | 0.00 | 0.00 | 0.00 | 24 | 1011.1 |
| 20260504201706 | 20 | 18 | 3.2 | 8.0 | 0.00 | 0.00 | 0.00 | 24 | 1011.3 |
| 20260504201203 | 21 | 19 | 3.2 | 8.0 | 0.00 | 0.00 | 0.00 | 23 | 1011.2 |
| 20260504200701 | 21 | 19 | 0.0 | 0.0 | 0.00 | 0.00 | 0.00 | 21 | 1011.2 |
| 20260504200157 | 21 | 18 | 0.0 | 0.0 | 0.00 | 0.00 | 0.00 | 22 | 1011.2 |
| 20260504195654 | 21 | 18 | 0.0 | 1.6 | 0.00 | 0.00 | 0.00 | 22 | 1011.2 |
| 20260504195149 | 21 | 18 | 1.6 | 3.2 | 0.00 | 0.00 | 0.00 | 23 | 1011.1 |
| 20260504194646 | 20 | 18 | 0.0 | 1.6 | 0.00 | 0.00 | 0.00 | 26 | 1011.3 |
| 20260504194142 | 21 | 18 | 1.6 | 3.2 | 0.00 | 0.00 | 0.00 | 24 | 1011.2 |
| 20260504193639 | 21 | 18 | 0.0 | 1.6 | 0.00 | 0.00 | 0.00 | 23 | 1011.1 |
| 20260504193137 | 20 | 18 | 0.0 | 0.0 | 0.00 | 0.00 | 0.00 | 22 | 1011.6 |
| 20260504192634 | 20 | 18 | 0.0 | 0.0 | 0.00 | 0.00 | 0.00 | 22 | 1011.6 |
| 20260504192132 | 21 | 18 | 0.0 | 0.0 | 0.00 | 0.00 | 0.00 | 22 | 1011.4 |
| 20260504191631 | 20 | 18 | 0.0 | 0.0 | 0.00 | 0.00 | 0.00 | 23 | 1011.2 |
| 20260504191127 | 20 | 18 | 0.0 | 0.0 | 0.00 | 0.00 | 0.00 | 22 | 1011.6 |
| 20260504190623 | 20 | 19 | 0.0 | 0.0 | 0.00 | 0.00 | 0.00 | 21 | 1011.7 |
| 20260504190120 | 20 | 18 | 1.6 | 3.2 | 0.00 | 0.00 | 0.00 | 21 | 1012.1 |
| 20260504185616 | 20 | 18 | 0.0 | 0.0 | 0.00 | 0.00 | 0.00 | 21 | 1011.9 |
| 20260504185113 | 20 | 18 | 4.8 | 4.8 | 0.00 | 0.00 | 0.00 | 20 | 1011.8 |
| 20260504184608 | 21 | 18 | 0.0 | 0.0 | 0.00 | 0.00 | 0.00 | 20 | 1012.1 |
| 20260504184103 | 21 | 18 | 0.0 | 0.0 | 0.00 | 0.00 | 0.00 | 20 | 1012.1 |
| 20260504183601 | 21 | 19 | 0.0 | 0.0 | 0.00 | 0.00 | 0.00 | 20 | 1012.1 |
| 20260504183059 | 21 | 18 | 0.0 | 0.0 | 0.00 | 0.00 | 0.00 | 20 | 1012.4 |
| 20260504182555 | 21 | 18 | 0.0 | 0.0 | 0.00 | 0.00 | 0.00 | 19 | 1012.4 |
| 20260504182053 | 21 | 19 | 0.0 | 0.0 | 0.00 | 0.00 | 0.00 | 19 | 1012.4 |
| 20260504181550 | 21 | 18 | 0.0 | 0.0 | 0.00 | 0.00 | 0.00 | 19 | 1012.8 |
| 20260504181048 | 20 | 18 | 1.6 | 1.6 | 0.00 | 0.00 | 0.00 | 21 | 1012.9 |
| 20260504180547 | 19 | 18 | 0.0 | 0.0 | 0.00 | 0.00 | 0.00 | 21 | 1012.9 |
| 20260504180046 | 19 | 17 | 0.0 | 0.0 | 0.00 | 0.00 | 0.00 | 21 | 1012.7 |
| 20260504175542 | 20 | 18 | 0.0 | 1.6 | 0.00 | 0.00 | 0.00 | 22 | 1012.9 |
| 20260504175039 | 21 | 18 | 0.0 | 0.0 | 0.00 | 0.00 | 0.00 | 21 | 1012.9 |
| 20260504174537 | 20 | 18 | 0.0 | 1.6 | 0.00 | 0.00 | 0.00 | 22 | 1013.0 |
| 20260504174033 | 21 | 18 | 0.0 | 0.0 | 0.00 | 0.00 | 0.00 | 22 | 1013.4 |
| 20260504173530 | 21 | 18 | 0.0 | 0.0 | 0.00 | 0.00 | 0.00 | 21 | 1013.1 |
| 20260504173028 | 20 | 18 | 0.0 | 0.0 | 0.00 | 0.00 | 0.00 | 23 | 1013.4 |
| 20260504172524 | 21 | 18 | 0.0 | 0.0 | 0.00 | 0.00 | 0.00 | 24 | 1013.1 |
| 20260504172021 | 20 | 18 | 0.0 | 0.0 | 0.00 | 0.00 | 0.00 | 25 | 1013.6 |
| 20260504171517 | 18 | 17 | 0.0 | 1.6 | 0.00 | 0.00 | 0.00 | 25 | 1013.4 |
| 20260504171014 | 19 | 18 | 1.6 | 1.6 | 0.00 | 0.00 | 0.00 | 26 | 1013.8 |
| 20260504170510 | 19 | 18 | 1.6 | 1.6 | 0.00 | 0.00 | 0.00 | 26 | 1013.6 |
| 20260504160430 | 19 | 17 | 0.0 | 0.0 | 0.00 | 0.00 | 0.00 | 23 | 1013.9 |
| 20260504150854 | 17 | 18 | 0.0 | 0.0 | 0.00 | 0.00 | 0.00 | 30 | 1014.2 |
| 20260504150351 | 17 | 17 | 0.0 | 0.0 | 0.00 | 0.00 | 0.00 | 30 | 1014.2 |
| 20260504141321 | 13 | 17 | 0.0 | 0.0 | 0.00 | 0.00 | 0.00 | 38 | 1014.1 |
| 20260504140817 | 13 | 17 | 0.0 | 0.0 | 0.00 | 0.00 | 0.00 | 38 | 1014.2 |
| 20260504140313 | 13 | 17 | 0.0 | 0.0 | 0.00 | 0.00 | 0.00 | 39 | 1014.2 |